User: anonymous   Login
Location: ??????
(38.0131°N, 23.7723°E)
Time: 18:03:10
(UTC+00:00)
Language:

CZ-2C R/B - Orbit

View from above orbital plane
View from above orbital plane
View from above satellite
View from above satellite

Ground track
Ground track

The orbit data is extracted from the following two-line orbital elements,

1 43173U 18011E   22019.10912458  .00010210  00000-0  26739-3 0  9997
2 43173  34.9949   2.6783 0135236 247.6499 110.9836 15.28989143222201
Epoch (UTC): 19 January 2022 02:37:08
Eccentricity: 0.0135236
inclination: 34.9949°
perigee height: 386 km
apogee height: 571 km
right ascension of ascending node: 2.6783°
argument of perigee: 247.6499°
revolutions per day: 15.28989143
mean anomaly at epoch: 110.9836°
orbit number at epoch: 22220

The dashed part of the orbit path shows where the satellite is in the earth's shadow,  

DLR